Weather History for Sturgis, MI

Change the Weather History Date:

Sunday, February 10, 2013

  Actual Average (KHAI) Record (KHAI)
Temperature  
Mean Temperature 35 °F -  
Max Temperature 46 °F 32 °F 60 °F (2009)
Min Temperature 26 °F 12 °F -14 °F (1978)
Degree Days  
Heating Degree Days 30    
Moisture  
Dew Point 29 °F    
Average Humidity 81    
Maximum Humidity 100    
Minimum Humidity 70    
Precipitation  
Precipitation 0.00 in - - ()
Sea Level Pressure  
Sea Level Pressure 29.91 in    
Wind  
Wind Speed 10 mph (SSE)    
Max Wind Speed 17 mph    
Max Gust Speed 25 mph    
Visibility 9 miles    
Events Rain    
Averages and records for this station are not official NWS values.
T = Trace of Precipitation, MM = Missing Value Source: NWS Daily Summary

Daily Weather History Graph

Daily Weather History Graph

Search for Another Location

Airport:

Trip Planner

Search our weather history database for the weather conditions in past years. The results will help you decide how hot, cold, wet, or windy it might be!

Date:

Astronomy

Feb. 10, 2013 Rise Set
Actual Time 7:43 AM EST 6:08 PM EST
Civil Twilight 7:14 AM EST 6:37 PM EST
Nautical Twilight 6:41 AM EST 7:10 PM EST
Astronomical Twilight 6:09 AM EST 7:43 PM EST
Moon 7:31 AM EST (2/10) 7:00 PM EST (2/10)
Length of Visible Light 11h 23m
Length of Day
10h 25m
New Moon, 0% of the Moon is Illuminated
Feb 10
New Moon
Feb 17
First Quarter
Feb 25
Full
Mar 4
Last Quarter
Mar 11
New

Hourly Weather History & Observations

Time (EST) Temp. Windchill Dew Point Humidity Pressure Visibility Wind Dir Wind Speed Gust Speed Precip Events Conditions
12:15 AM 26.6 °F 17.5 °F 21.2 °F 80% 30.18 in 10.0 mi SSE 9.2 mph 17.3 mph N/A   Clear
12:34 AM 26.6 °F 18.2 °F 21.2 °F 80% 30.17 in 10.0 mi SE 8.1 mph 16.1 mph N/A   Clear
12:55 AM 26.6 °F 18.2 °F 21.2 °F 80% 30.16 in 10.0 mi SE 8.1 mph - N/A   Clear
1:15 AM 26.6 °F 18.2 °F 21.2 °F 80% 30.15 in 10.0 mi SE 8.1 mph - N/A   Clear
1:34 AM 26.6 °F 16.8 °F 21.2 °F 80% 30.15 in 10.0 mi SSE 10.4 mph - N/A   Clear
1:55 AM 26.6 °F 17.5 °F 21.2 °F 80% 30.14 in 10.0 mi SE 9.2 mph - N/A   Clear
2:15 AM 26.6 °F 17.5 °F 21.2 °F 80% 30.13 in 10.0 mi SSE 9.2 mph - N/A   Clear
2:34 AM 26.6 °F 16.8 °F 21.2 °F 80% 30.12 in 10.0 mi SSE 10.4 mph - N/A   Clear
2:55 AM 26.6 °F 20.0 °F 21.2 °F 80% 30.13 in 10.0 mi SSE 5.8 mph - N/A   Clear
3:15 AM 28.4 °F 21.2 °F 21.2 °F 74% 30.12 in 10.0 mi SSE 6.9 mph - N/A   Clear
3:34 AM 28.4 °F 20.4 °F 21.2 °F 74% 30.11 in 10.0 mi SSE 8.1 mph - N/A   Clear
3:55 AM 26.6 °F 22.6 °F 21.2 °F 80% 30.12 in 10.0 mi SSW 3.5 mph - N/A   Clear
4:14 AM 26.6 °F 22.6 °F 21.2 °F 80% 30.12 in 10.0 mi South 3.5 mph - N/A   Clear
4:35 AM 26.6 °F 22.6 °F 21.2 °F 80% 30.11 in 10.0 mi SSE 3.5 mph - N/A   Clear
4:55 AM 26.6 °F 20.0 °F 21.2 °F 80% 30.11 in 10.0 mi SSE 5.8 mph - N/A   Clear
5:14 AM 28.4 °F 21.2 °F 21.2 °F 74% 30.11 in 10.0 mi SSE 6.9 mph - N/A   Clear
5:35 AM 28.4 °F 20.4 °F 21.2 °F 74% 30.11 in 10.0 mi SSE 8.1 mph - N/A   Clear
5:55 AM 28.4 °F 20.4 °F 21.2 °F 74% 30.11 in 10.0 mi SSE 8.1 mph - N/A   Clear
6:14 AM 28.4 °F 20.4 °F 21.2 °F 74% 30.09 in 10.0 mi SSE 8.1 mph - N/A   Scattered Clouds
6:35 AM 28.4 °F 23.3 °F 23.0 °F 80% 30.08 in 10.0 mi SE 4.6 mph - N/A   Mostly Cloudy
6:55 AM 28.4 °F 20.4 °F 24.8 °F 86% 30.08 in 7.0 mi SE 8.1 mph - N/A   Overcast
7:14 AM 28.4 °F 19.7 °F 24.8 °F 86% 30.07 in 10.0 mi SE 9.2 mph - N/A   Overcast
7:35 AM 28.4 °F 19.1 °F 24.8 °F 86% 30.07 in 10.0 mi SSE 10.4 mph - N/A   Overcast
7:55 AM 30.2 °F 20.8 °F 24.8 °F 80% 30.05 in 10.0 mi SE 11.5 mph - N/A   Overcast
8:15 AM 28.4 °F 18.0 °F 24.8 °F 86% 30.05 in 10.0 mi SSE 12.7 mph - N/A   Overcast
8:35 AM 30.2 °F 21.3 °F 24.8 °F 80% 30.05 in 10.0 mi SSE 10.4 mph - N/A   Overcast
8:54 AM 30.2 °F 21.3 °F 24.8 °F 80% 30.03 in 10.0 mi SE 10.4 mph - N/A   Overcast
9:15 AM 30.2 °F 19.8 °F 24.8 °F 80% 30.01 in 10.0 mi SE 13.8 mph - N/A   Mostly Cloudy
9:35 AM 30.2 °F 20.2 °F 24.8 °F 80% 30.02 in 10.0 mi SE 12.7 mph - N/A   Mostly Cloudy
9:54 AM 32.0 °F 23.0 °F 24.8 °F 75% 30.02 in 10.0 mi SSE 11.5 mph - N/A   Overcast
10:15 AM 32.0 °F 23.0 °F 24.8 °F 75% 30.02 in 10.0 mi SSE 11.5 mph - N/A   Overcast
10:34 AM 32.0 °F 23.0 °F 24.8 °F 75% 30.01 in 10.0 mi SSE 11.5 mph 17.3 mph N/A   Overcast
10:55 AM 32.0 °F 24.2 °F 24.8 °F 75% 30.01 in 10.0 mi SSE 9.2 mph - N/A   Overcast
11:15 AM 33.8 °F 26.4 °F 26.6 °F 75% 30.00 in 10.0 mi SSE 9.2 mph - N/A   Overcast
11:34 AM 35.6 °F 28.6 °F 26.6 °F 70% 29.98 in 10.0 mi SE 9.2 mph - N/A   Overcast
11:55 AM 35.6 °F 28.6 °F 26.6 °F 70% 29.96 in 10.0 mi SE 9.2 mph - N/A   Mostly Cloudy
12:15 PM 35.6 °F 28.0 °F 28.4 °F 75% 29.95 in 10.0 mi SE 10.4 mph - N/A   Overcast
12:34 PM 37.4 °F 30.3 °F 28.4 °F 70% 29.94 in 10.0 mi SSE 10.4 mph - N/A   Overcast
12:55 PM 37.4 °F 30.3 °F 28.4 °F 70% 29.92 in 10.0 mi SE 10.4 mph - N/A   Overcast
1:15 PM 37.4 °F 30.3 °F 28.4 °F 70% 29.89 in 10.0 mi SE 10.4 mph - N/A   Overcast
1:35 PM 37.4 °F 28.9 °F 30.2 °F 75% 29.89 in 10.0 mi SE 13.8 mph - N/A   Overcast
1:54 PM 37.4 °F 29.3 °F 30.2 °F 75% 29.87 in 10.0 mi SE 12.7 mph - N/A   Overcast
2:15 PM 37.4 °F 29.3 °F 30.2 °F 75% 29.85 in 10.0 mi SE 12.7 mph 18.4 mph N/A   Overcast
2:34 PM 37.4 °F 28.5 °F 30.2 °F 75% 29.84 in 10.0 mi SSE 15.0 mph 20.7 mph N/A   Overcast
2:55 PM 37.4 °F 29.8 °F 30.2 °F 75% 29.83 in 10.0 mi SE 11.5 mph 19.6 mph N/A   Overcast
3:15 PM 37.4 °F 29.3 °F 30.2 °F 75% 29.82 in 10.0 mi SE 12.7 mph - N/A   Overcast
3:34 PM 37.4 °F 29.8 °F 30.2 °F 75% 29.81 in 10.0 mi SE 11.5 mph - N/A   Overcast
3:55 PM 39.2 °F 31.6 °F 30.2 °F 70% 29.79 in 10.0 mi SE 12.7 mph 17.3 mph N/A   Drizzle
4:15 PM 37.4 °F 28.9 °F 32.0 °F 81% 29.77 in 7.0 mi SE 13.8 mph - N/A Rain Rain
4:34 PM 37.4 °F 28.9 °F 33.8 °F 87% 29.75 in 5.0 mi SE 13.8 mph - N/A Rain Light Rain
4:55 PM 37.4 °F 30.8 °F 33.8 °F 87% 29.75 in 3.0 mi SSE 9.2 mph - N/A Rain Light Rain
5:14 PM 37.4 °F 28.9 °F 33.8 °F 87% 29.73 in 10.0 mi SSE 13.8 mph 18.4 mph N/A   Overcast
5:35 PM 39.2 °F 30.5 °F 35.6 °F 87% 29.73 in 10.0 mi SSE 16.1 mph 23.0 mph N/A   Overcast
5:55 PM 37.4 °F 28.5 °F 35.6 °F 93% 29.71 in 10.0 mi SSE 15.0 mph 18.4 mph N/A   Overcast
6:15 PM 39.2 °F 30.2 °F 35.6 °F 87% 29.71 in 7.0 mi SE 17.3 mph 24.2 mph N/A   Overcast
6:35 PM 39.2 °F 30.5 °F 35.6 °F 87% 29.70 in 4.0 mi SSE 16.1 mph 24.2 mph N/A Rain Rain
6:54 PM 39.2 °F 30.8 °F 35.6 °F 87% 29.69 in 10.0 mi SSE 15.0 mph 19.6 mph N/A   Overcast
7:15 PM 39.2 °F 31.6 °F 35.6 °F 87% 29.69 in 10.0 mi SSE 12.7 mph 25.3 mph N/A   Overcast
7:35 PM 39.2 °F 31.6 °F 33.8 °F 81% 29.68 in 10.0 mi SSE 12.7 mph - N/A   Overcast
7:54 PM 39.2 °F 30.8 °F 35.6 °F 87% 29.68 in 4.0 mi SSE 15.0 mph - N/A   Heavy Drizzle
8:15 PM 39.2 °F 31.2 °F 35.6 °F 87% 29.67 in 5.0 mi SSE 13.8 mph 19.6 mph N/A   Drizzle
8:34 PM 39.2 °F 30.5 °F 37.4 °F 93% 29.67 in 4.0 mi South 16.1 mph 23.0 mph N/A   Drizzle
8:55 PM 39.2 °F 31.2 °F 37.4 °F 93% 29.66 in 7.0 mi South 13.8 mph 21.9 mph N/A   Overcast
9:14 PM 39.2 °F 31.2 °F 37.4 °F 93% 29.66 in 7.0 mi South 13.8 mph 20.7 mph N/A   Overcast
9:35 PM 39.2 °F 31.6 °F 37.4 °F 93% 29.66 in 7.0 mi South 12.7 mph - N/A   Drizzle
9:55 PM 39.2 °F 32.0 °F 37.4 °F 93% 29.65 in 7.0 mi South 11.5 mph - N/A   Overcast
10:15 PM 39.2 °F 32.5 °F 39.2 °F 100% 29.64 in 5.0 mi South 10.4 mph - N/A   Overcast
10:34 PM 41.0 °F 35.8 °F 39.2 °F 93% 29.63 in 5.0 mi South 8.1 mph - N/A   Overcast
10:55 PM 42.8 °F 37.0 °F 41.0 °F 93% 29.62 in 7.0 mi South 10.4 mph - N/A   Overcast
11:15 PM 44.6 °F 37.8 °F 42.8 °F 93% 29.62 in 10.0 mi SSW 15.0 mph 19.6 mph N/A   Overcast
11:34 PM 44.6 °F 37.8 °F 44.6 °F 100% 29.61 in 10.0 mi South 15.0 mph 23.0 mph N/A   Overcast
11:55 PM 46.4 °F 40.7 °F 44.6 °F 93% 29.60 in 10.0 mi South 12.7 mph - N/A   Overcast